Onweer radar Meer informatie blitzortung!


Regen radar Meer informatie rain snow radar


Bezoek onze andere website:

Template documentation
and downloads

And another site



15 daagse weersverwachting Sardinia (IT)

  • Overzicht
  • Per uur
  • 15 dagen
  • Extra
  • Vergelijk
  • Kaarten
  • Dagkaart
  • Meer »
  • Info
  • Statistieken
  • Directe link
    Temp 6h Neerslag Wind  
 07:10     17:07    Daglengte: 9:57 Vandaag
19:00
11.5 mm
4
 07:11     17:07    Daglengte: 9:56 Morgen
01:00
1.3 mm
3
07:00
 
2
13:00
11°
 
1
19:00
29.1 mm
3
 07:13     17:06    Daglengte: 9:53 Zondag 17 Nov
01:00
51.3 mm
3
07:00
59.7 mm
2
13:00
10°
34.7 mm
5
warningclass
19:00
36.1 mm
2
 07:14     17:05    Daglengte: 9:51 Maandag 18 Nov
01:00
71.5 mm
3
07:00
89.8 mm
4
13:00
10°
171.4 mm
6
Locatie info
Region: Sardinia
Latitude: 40.0000°N
Longitude: 9.0000°E
384 masl
Temp/Neerslag /Baro Onweer/Dauwpunt
    Temp Baro 1h Neerslag Dauwpunt Wind UV Bewolking  
 07:10     17:07    Daglengte: 9:57 Vandaag
17:00
Voelt als: 7.3°
1004.6 hPa 8.2 mm
48%
8.2°
4
Windvlaag: 3.8 m/s
64%
18:00
Voelt als: 6.9°
1005.3 hPa 1.7 mm
82%
8.4°
4
Windvlaag: 3.5 m/s
60%
19:00
Voelt als: 6.9°
1006.0 hPa 1.7 mm
72%
8.2°
4
Windvlaag: 3.7 m/s
46%
20:00
Voelt als: 6.8°
1006.6 hPa
69%
8.0°
4
Windvlaag: 3.2 m/s
43%
21:00
Voelt als: 6.6°
1006.9 hPa 1.3 mm
73%
7.6°
3
Windvlaag: 2.8 m/s
35%
22:00
Voelt als: 6.4°
1007.3 hPa
68%
7.4°
3
Windvlaag: 3 m/s
41%
23:00
Voelt als: 6.9°
1007.7 hPa
64%
7.6°
3
Windvlaag: 3.2 m/s
29%
 07:11     17:07    Daglengte: 9:56 Morgen
00:00
Voelt als: 7.1°
1008.1 hPa
24%
7.7°
3
Windvlaag: 2.8 m/s
33%
01:00
Voelt als: 6.9°
1008.3 hPa
60%
7.5°
3
Windvlaag: 2.1 m/s
16%
02:00
Voelt als: 6.2°
1008.5 hPa
18%
6.9°
3
Windvlaag: 1.7 m/s
18%
03:00
Voelt als: 5.6°
1008.4 hPa
15%
6.5°
3
Windvlaag: 1.7 m/s
25%
04:00
Voelt als: 5.6°
1008.2 hPa
14%
6.3°
3
Windvlaag: 1.6 m/s
43%
05:00
Voelt als: 5.9°
1008.2 hPa
14%
6.3°
2
Windvlaag: 1.2 m/s
70%
06:00
Voelt als: 6.3°
1008.2 hPa
18%
6.2°
2
Windvlaag: 1 m/s
84%
07:00
Voelt als: 6.0°
1008.4 hPa
14%
5.7°
2
Windvlaag: 0.9 m/s
89%
08:00
Voelt als: 6.4°
1008.7 hPa
14%
5.7°
3
Windvlaag: 1 m/s
90%
09:00
Voelt als: 7.5°
1008.9 hPa
14%
5.8°
2
Windvlaag: 0.9 m/s
90%
10:00
10°
Voelt als: 9.1°
1008.8 hPa
14%
6.3°
2
Windvlaag: 0.3 m/s
91%
11:00
11°
1008.6 hPa
17%
6.4°
2
Windvlaag: -0.1 m/s
90%
12:00
11°
1007.7 hPa
20%
7.1°
2
Windvlaag: 0 m/s
90%
13:00
11°
1006.9 hPa
33%
7.0°
1
Windvlaag: -0.4 m/s
91%
14:00
10°
1006.3 hPa 2.5 mm
82%
8.0°
1
Windvlaag: 0.6 m/s
89%
15:00
Voelt als: 8.6°
1005.5 hPa 3.0 mm
82%
7.2°
2
Windvlaag: 0.4 m/s
88%
16:00
Voelt als: 7.2°
1005.1 hPa 3.7 mm
82%
7.1°
3
Windvlaag: -2 m/s
91%
17:00
Voelt als: 6.2°
1005.2 hPa 5.1 mm
82%
6.8°
3
Windvlaag: -3 m/s
91%
18:00
Voelt als: 5.8°
1005.1 hPa 6.9 mm
82%
6.6°
3
Windvlaag: -4.4 m/s
86%
19:00
Voelt als: 5.3°
1004.8 hPa 7.8 mm
82%
6.0°
3
Windvlaag: -3.9 m/s
91%
20:00
Voelt als: 5.5°
1004.5 hPa 8.0 mm
82%
5.9°
3
Windvlaag: -3.7 m/s
90%
21:00
Voelt als: 5.3°
1004.7 hPa 8.4 mm
82%
5.9°
3
Windvlaag: -5.5 m/s
90%
22:00
Voelt als: 5.4°
1004.6 hPa 8.2 mm
82%
6.0°
3
Windvlaag: -5.7 m/s
89%
23:00
Voelt als: 5.6°
1004.4 hPa 7.7 mm
82%
6.3°
2
Windvlaag: -5.6 m/s
89%
 07:13     17:06    Daglengte: 9:53 Zondag 17 Nov
00:00
Voelt als: 5.7°
1004.5 hPa 9.2 mm
82%
6.8°
2
Windvlaag: -5.8 m/s
91%
01:00
Voelt als: 5.6°
1004.4 hPa 9.9 mm
82%
6.7°
3
Windvlaag: -5.5 m/s
90%
02:00
Voelt als: 5.3°
1004.5 hPa 10.1 mm
82%
6.3°
3
Windvlaag: -4.7 m/s
88%
03:00
Voelt als: 5.7°
1004.7 hPa 10.6 mm
82%
6.3°
2
Windvlaag: -5.3 m/s
87%
04:00
Voelt als: 5.4°
1005.0 hPa 11.0 mm
82%
6.5°
2
Windvlaag: -4 m/s
89%
05:00
Voelt als: 5.6°
1005.4 hPa 11.3 mm
82%
6.6°
2
Windvlaag: -3.3 m/s
85%
06:00
Voelt als: 5.6°
1006.0 hPa 16.6 mm
82%
6.2°
2
Windvlaag: -2 m/s
71%
07:00
Voelt als: 6.0°
1006.6 hPa
70%
6.3°
2
Windvlaag: -1.7 m/s
73%
08:00
Voelt als: 5.9°
1007.6 hPa
19%
6.4°
2
Windvlaag: -1.6 m/s
82%
09:00
Voelt als: 7.6°
1008.3 hPa
58%
7.0°
2
Windvlaag: -1.4 m/s
68%
10:00
10°
Voelt als: 8.3°
1009.1 hPa
35%
7.0°
3
Windvlaag: -0.8 m/s
35%
11:00
10°
1009.4 hPa
89%
5.5°
4
Windvlaag: -0.6 m/s
63%
12:00
10°
Voelt als: 7.8°
1009.4 hPa 17.1 mm
91%
7.8°
4
Windvlaag: -0.5 m/s
83%
13:00
10°
Voelt als: 7.3°
1009.3 hPa 17.7 mm
94%
7.8°
5
Windvlaag: 0.4 m/s
64% warningclass
14:00
10°
Voelt als: 7.7°
1009.3 hPa
77%
8.2°
4
Windvlaag: 0 m/s
75%
15:00
Voelt als: 6.8°
1009.8 hPa 18.2 mm
83%
7.4°
3
Windvlaag: -0.1 m/s
63%
16:00
Voelt als: 7.1°
1010.2 hPa 17.9 mm
82%
8.2°
3
Windvlaag: 1.2 m/s
73%
17:00
Voelt als: 6.4°
1010.7 hPa
75%
7.1°
2
Windvlaag: 0.4 m/s
24%
18:00
Voelt als: 5.8°
1011.4 hPa
22%
7.1°
3
Windvlaag: 0.9 m/s
68%
19:00
Voelt als: 5.3°
1012.1 hPa
22%
6.3°
2
Windvlaag: 1.4 m/s
70%
20:00
Voelt als: 5.8°
1012.6 hPa 17.7 mm
22%
6.8°
2
Windvlaag: 2.3 m/s
57%
21:00
Voelt als: 5.5°
1012.7 hPa
21%
6.8°
3
Windvlaag: 2.7 m/s
61%
22:00
Voelt als: 5.9°
1012.8 hPa
21%
6.7°
2
Windvlaag: 2.9 m/s
46%
23:00
Voelt als: 5.7°
1012.7 hPa 17.9 mm
32%
6.8°
2
Windvlaag: 3.1 m/s
72%
 07:14     17:05    Daglengte: 9:51 Maandag 18 Nov
00:00
Voelt als: 5.5°
1012.4 hPa 17.9 mm
89%
6.7°
3
Windvlaag: 3.1 m/s
64%
01:00
Voelt als: 5.4°
1012.1 hPa 18.0 mm
93%
6.4°
3
Windvlaag: 2.4 m/s
53%
02:00
Voelt als: 5.7°
1012.0 hPa 17.9 mm
98%
6.5°
3
Windvlaag: 2.3 m/s
47%
03:00
Voelt als: 5.6°
1011.8 hPa 17.9 mm
100%
6.2°
3
Windvlaag: 2 m/s
38%
04:00
Voelt als: 5.0°
1011.5 hPa 18.0 mm
100%
5.8°
4
Windvlaag: 1.7 m/s
43%
05:00
Voelt als: 5.0°
1011.3 hPa 18.0 mm
100%
6.1°
4
Windvlaag: 1.8 m/s
84%
06:00
Voelt als: 5.5°
1011.2 hPa
100%
6.6°
4
Windvlaag: 1.9 m/s
76%
07:00
Voelt als: 5.7°
1011.4 hPa 18.0 mm
98%
7.2°
4
Windvlaag: 2.7 m/s
75%
08:00
Voelt als: 6.1°
1011.3 hPa 29.8 mm
94%
7.6°
5
Windvlaag: 11.5 m/s
97%
09:00
Voelt als: 6.6°
1011.0 hPa
41%
8.2°
5
Windvlaag: 11.5 m/s
99%
10:00
Voelt als: 6.8°
1010.5 hPa 32.5 mm
100%
8.6°
5
Windvlaag: 15.9 m/s
100%
11:00
10°
Voelt als: 6.7°
1010.3 hPa 34.5 mm
100%
8.9°
6
Windvlaag: 15.2 m/s
100%
12:00
10°
Voelt als: 6.9°
1009.7 hPa 37.1 mm
100%
9.2°
6
Windvlaag: 19.2 m/s
100% warningclass
13:00
10°
1009.1 hPa 37.5 mm
100%
9.5°
6
Windvlaag: 2 m/s
99%
14:00
10°
Voelt als: 7.3°
1009.6 hPa 111.9 mm
100%
9.6°
6
Windvlaag: 8 m/s
96%
15:00
10°
1009.4 hPa 113.1 mm
100%
9.6°
6
Windvlaag: 11.1 m/s
91%
16:00
10°
Voelt als: 7.3°
1009.1 hPa 114.0 mm
100%
9.5°
6
Windvlaag: 10 m/s
93%
Temp/Neerslag /Baro Onweer/Dauwpunt
    Temp Baro Neerslag Dauwpunt Wind Bewolking  
 07:10     17:07    Daglengte: 9:57 Vandaag
19:00
Voelt als: 6.9°
1006.0 hPa 11.5 mm 8.2°
4
46%
22:00
Voelt als: 6.4°
1007.3 hPa 1.3 mm 7.4°
3
41%
 07:11     17:07    Daglengte: 9:56 Morgen
01:00
Voelt als: 6.9°
1008.3 hPa   7.5°
3
16%
04:00
Voelt als: 5.6°
1008.2 hPa   6.3°
3
43%
07:00
Voelt als: 6.0°
1008.4 hPa   5.7°
2
89%
10:00
10°
Voelt als: 9.1°
1008.8 hPa   6.3°
2
91%
13:00
11°
1006.9 hPa   7.0°
1
91%
16:00
Voelt als: 7.2°
1005.1 hPa 9.2 mm 7.1°
3
91%
19:00
Voelt als: 5.3°
1004.8 hPa 19.8 mm 6.0°
3
91%
22:00
Voelt als: 5.4°
1004.6 hPa 24.5 mm 6.0°
3
89%
 07:13     17:06    Daglengte: 9:53 Zondag 17 Nov
01:00
Voelt als: 5.6°
1004.4 hPa 26.8 mm 6.7°
3
90%
04:00
Voelt als: 5.4°
1005.0 hPa 31.8 mm 6.5°
2
89%
07:00
Voelt als: 6.0°
1006.6 hPa 27.9 mm 6.3°
2
73%
10:00
10°
Voelt als: 8.3°
1009.1 hPa   7.0°
3
35%
13:00
10°
Voelt als: 7.3°
1009.3 hPa 34.7 mm 7.8°
5
64% warningclass
16:00
Voelt als: 7.1°
1010.2 hPa 36.1 mm 8.2°
3
73%
19:00
Voelt als: 5.3°
1012.1 hPa   6.3°
2
70%
22:00
Voelt als: 5.9°
1012.8 hPa 17.7 mm 6.7°
2
46%
 07:14     17:05    Daglengte: 9:51 Maandag 18 Nov
01:00
Voelt als: 5.4°
1012.1 hPa 53.8 mm 6.4°
3
53%
04:00
Voelt als: 5.0°
1011.5 hPa 53.8 mm 5.8°
4
43%
07:00
Voelt als: 5.7°
1011.4 hPa 36.0 mm 7.2°
4
75%
10:00
Voelt als: 6.8°
1010.5 hPa 62.4 mm 8.6°
5
100%
13:00
10°
1009.1 hPa 109.0 mm 9.5°
6
99%
16:00
10°
Voelt als: 7.3°
1009.1 hPa 338.9 mm 9.5°
6
93%
19:00
10°
Voelt als: 7.2°
1008.8 hPa 344.6 mm 9.3°
5
88%
22:00
Voelt als: 7.5°
1009.6 hPa 62.9 mm 8.9°
3
90%
 07:15     17:04    Daglengte: 9:49 Dinsdag 19 Nov
01:00
Voelt als: 8.0°
1009.8 hPa 63.2 mm 8.9°
2
91%
04:00
Voelt als: 8.0°
1010.3 hPa 64.1 mm 8.8°
2
91%
07:00
Voelt als: 7.9°
1011.0 hPa 64.6 mm 8.7°
2
92%
10:00
10°
1012.2 hPa 64.6 mm 9.4°
2
81%
13:00
12°
1013.2 hPa 64.6 mm 10.1°
3
71%
16:00
10°
Voelt als: 8.9°
1015.1 hPa 64.7 mm 8.8°
2
63%
19:00
Voelt als: 7.0°
1017.0 hPa 64.7 mm 7.3°
2
56%
22:00
Voelt als: 5.7°
1017.6 hPa 64.7 mm 5.4°
2
36%
 07:16     17:04    Daglengte: 9:48 Woensdag 20 Nov
01:00
Voelt als: 4.5°
1018.1 hPa 64.7 mm 3.5°
2
17%
04:00
Voelt als: 4.1°
1017.6 hPa 64.7 mm 3.8°
2
54%
07:00
Voelt als: 3.9°
1017.2 hPa 64.7 mm 4.2°
2
92%
10:00
Voelt als: 8.7°
1016.9 hPa 64.7 mm 5.1°
2
65%
13:00
13°
1016.4 hPa 64.7 mm 5.1°
1
38%
16:00
11°
1016.0 hPa 64.7 mm 5.3°
2
31%
19:00
Voelt als: 6.5°
1015.8 hPa 64.7 mm 4.9°
3
24%
22:00
Voelt als: 7.0°
1015.4 hPa 64.7 mm 6.0°
4
57%
 07:17     17:03    Daglengte: 9:46 Donderdag 21 Nov
01:00
10°
Voelt als: 7.8°
1015.0 hPa 64.7 mm 7.0°
4
89%
04:00
10°
1014.7 hPa 64.7 mm 7.5°
4
86%
07:00
11°
1014.5 hPa 64.7 mm 7.9°
3
84%
10:00
13°
1014.7 hPa 64.7 mm 9.0°
3
62%
13:00
15°
1014.6 hPa 64.7 mm 9.8°
4
39%
16:00
13°
1014.9 hPa 64.7 mm 9.9°
3
42%
19:00
11°
1015.2 hPa 64.7 mm 9.2°
3
44%
22:00
11°
1015.0 hPa 64.7 mm 8.1°
4
65%
 07:18     17:03    Daglengte: 9:45 Vrijdag 22 Nov
01:00
11°
1014.6 hPa 64.7 mm 7.0°
4
85%
04:00
12°
1014.0 hPa 64.7 mm 7.6°
5
87%
07:00
12°
1013.5 hPa 64.7 mm 8.2°
5
89%
10:00
14°
1012.8 hPa 64.7 mm 9.0°
6
90%
13:00
16°
1012.0 hPa 64.7 mm 9.5°
6
90%
16:00
15°
1012.0 hPa   9.4°
6
89%
19:00
13°
1012.0 hPa 129.4 mm 8.9°
6
87%
 07:19     17:02    Daglengte: 9:43 Zaterdag 23 Nov
01:00
14°
1011.0 hPa 129.7 mm 11.6°
6
86%
07:00
14°
1009.3 hPa 138.6 mm 12.5°
6
92%
13:00
15°
1007.9 hPa 198.8 mm 13.0°
5
92%
19:00
14°
1007.3 hPa 214.9 mm 11.7°
4
57%
 07:20     17:02    Daglengte: 9:42 Zondag 24 Nov
01:00
14°
1006.7 hPa 216.5 mm 10.5°
3
92%
07:00
11°
1006.2 hPa 218.4 mm 11.0°
1
92%
13:00
17°
1005.7 hPa 220.6 mm 13.7°
2
66%
19:00
12°
1006.9 hPa 222.2 mm 11.5°
1
91%
 07:21     17:01    Daglengte: 9:40 Maandag 25 Nov
01:00
12°
1006.4 hPa 222.6 mm 10.3°
1
87%
07:00
Voelt als: 7.6°
1014.2 hPa 222.6 mm 6.8°
2
1%
13:00
14°
1010.2 hPa 1.7 mm 9.4°
2
55%
19:00
11°
1010.6 hPa 0.5 mm 9.2°
1
49%
 07:23     17:01    Daglengte: 9:38 Dinsdag 26 Nov
01:00
11°
1011.1 hPa 0.5 mm 9.0°
1
48%
07:00
11°
1010.5 hPa 1.3 mm 9.1°
1
60%
13:00
13°
1010.8 hPa 1.5 mm 9.6°
1
65%
19:00
11°
1010.4 hPa 0.7 mm 9.1°
0
57%
 07:24     17:00    Daglengte: 9:36 Woensdag 27 Nov
01:00
11°
1010.2 hPa 0.5 mm 9.0°
1
62%
07:00
11°
1009.2 hPa 0.5 mm 9.0°
1
64%
13:00
14°
1009.3 hPa 1.2 mm 9.6°
2
61%
19:00
11°
1009.4 hPa 1.1 mm 9.3°
1
57%
 07:25     17:00    Daglengte: 9:35 Donderdag 28 Nov
01:00
11°
1009.5 hPa 0.7 mm 9.1°
1
51%
07:00
11°
1009.2 hPa 0.6 mm 9.2°
1
55%
13:00
14°
1010.1 hPa 0.9 mm 9.5°
1
56%
19:00
11°
1010.5 hPa 0.6 mm 9.0°
1
53%
 07:26     17:00    Daglengte: 9:34 Vrijdag 29 Nov
01:00
11°
1010.8 hPa 0.3 mm 9.0°
1
51%
07:00
11°
1010.4 hPa 0.5 mm 8.9°
1
54%
13:00
14°
1010.5 hPa 1.8 mm 9.8°
1
51%
19:00
11°
1010.6 hPa 1.8 mm 9.2°
1
55%
 07:27     16:59    Daglengte: 9:32 Zaterdag 30 Nov
01:00
11°
1010.7 hPa 1.0 mm 9.0°
1
52%
07:00
11°
1010.4 hPa 1.8 mm 8.8°
1
57%
13:00
13°
1011.1 hPa 2.3 mm 9.1°
3
62%
  CAPE Lifted Index Hail Supercell Tornado SRH 3km CL BTM PRES CL TOP PRES Swiss DWD icon SMHI TS
 07:10     17:07    Daglengte: 9:57 Vandaag
17:00 385 J/kg -0.9 K 0 % 0 % 0 % 0 m²/s² 0 0 1.08 61
18:00 482 J/kg -1.6 K 0 % 0 % 0 % 0 m²/s² 0 0 1.22 80
19:00 468 J/kg -1.1 K 0 % 0 % 0 % 0 m²/s² 0 0 1.69 2
20:00 387 J/kg -0.9 K 0 % 0 % 0 % 0 m²/s² 0 0 0.15 2
21:00 3 J/kg 0.9 K 0 % 0 % 0 % 0 m²/s² 0 0 3.72 3
22:00 214 J/kg -0.3 K 0 % 0 % 0 % 0 m²/s² 0 0 2.22 3
23:00 234 J/kg -0.4 K 0 % 0 % 0 % 0 m²/s² 0 0 1.97 2
 07:11     17:07    Daglengte: 9:56 Morgen
00:00 227 J/kg -0.5 K 0 % 0 % 0 % 0 m²/s² 0 0 2.38 2
01:00 272 J/kg -0.3 K 0 % 0 % 0 % 0 m²/s² 0 0 2.58 2
02:00 258 J/kg -0.3 K 0 % 0 % 0 % 0 m²/s² 0 0 3.45 2
03:00 209 J/kg -0.2 K 0 % 0 % 0 % 0 m²/s² 0 0 4.78 3
04:00 153 J/kg -0.3 K 0 % 0 % 0 % 0 m²/s² 0 0 5.61 3
05:00 92 J/kg 0.2 K 0 % 0 % 0 % 0 m²/s² 0 0 6.68 3
06:00 28 J/kg 0.9 K 0 % 0 % 0 % 0 m²/s² 0 0 7.2 3
07:00 2 J/kg 2.4 K 0 % 0 % 0 % 0 m²/s² 0 0 7.44 3
08:00 0 J/kg 3.8 K 0 % 0 % 0 % 0 m²/s² 0 0 8.48 3
09:00 0 J/kg 5.1 K 0 % 0 % 0 % 0 m²/s² 0 0 7.92 3
10:00 0 J/kg 6.0 K 0 % 0 % 0 % 0 m²/s² 0 0 6.78 3
11:00 13 J/kg 5.4 K 0 % 0 % 0 % 0 m²/s² 0 0 5.76 3
12:00 29 J/kg 5.3 K 0 % 0 % 0 % 0 m²/s² 0 0 5.6 3
13:00 17 J/kg 6.2 K 0 % 0 % 0 % 0 m²/s² 0 0 6.44 3
14:00 0 J/kg 4.3 K 0 % 0 % 0 % 0 m²/s² 0 0 4.63 61
15:00 0 J/kg 3.5 K 0 % 0 % 0 % 0 m²/s² 0 0 3.71 61
16:00 0 J/kg 3.7 K 0 % 0 % 0 % 0 m²/s² 0 0 3.82 61
17:00 0 J/kg 3.8 K 0 % 0 % 0 % 0 m²/s² 0 0 3.8 61
18:00 46 J/kg 3.8 K 0 % 0 % 0 % 0 m²/s² 0 0 4.04 61
19:00 0 J/kg -0.3 K 0 % 0 % 0 % 0 m²/s² 0 0 0.57 61
20:00 0 J/kg 0.9 K 0 % 0 % 0 % 0 m²/s² 0 0 0.9 61
21:00 0 J/kg 1.2 K 0 % 0 % 0 % 0 m²/s² 0 0 1.35 61
22:00 0 J/kg -0.9 K 0 % 0 % 0 % 0 m²/s² 0 0 -0.09 61
23:00 0 J/kg -0.4 K 0 % 0 % 0 % 0 m²/s² 0 0 0.35 61
 07:13     17:06    Daglengte: 9:53 Zondag 17 Nov
00:00 1 J/kg 2.6 K 0 % 0 % 0 % 0 m²/s² 0 0 3.02 61
01:00 6 J/kg 3.2 K 0 % 0 % 0 % 0 m²/s² 0 0 3.44 61
02:00 7 J/kg 4.7 K 0 % 0 % 0 % 0 m²/s² 0 0 4.94 55
03:00 0 J/kg 2.8 K 0 % 0 % 0 % 0 m²/s² 0 0 3.04 61
04:00 1 J/kg 2.6 K 0 % 0 % 0 % 0 m²/s² 0 0 2.93 61
05:00 3 J/kg 1.9 K 0 % 0 % 0 % 0 m²/s² 0 0 2.26 61
06:00 26 J/kg 1.6 K 0 % 0 % 0 % 0 m²/s² 0 0 2.56 53
07:00 148 J/kg -0.3 K 0 % 0 % 0 % 0 m²/s² 0 0 1.14 45
08:00 18 J/kg 0.4 K 0 % 0 % 0 % 0 m²/s² 0 0 0.88 45
09:00 107 J/kg 0.0 K 0 % 0 % 0 % 0 m²/s² 0 0 2.91 3
10:00 351 J/kg -0.9 K 0 % 0 % 0 % 0 m²/s² 0 0 5.58 3
11:00 290 J/kg -0.8 K 0 % 0 % 0 % 0 m²/s² 0 0 2.35 80
12:00 697 J/kg -2.9 K 0 % 0 % 0 % 0 m²/s² 0 0 -1.97 80
13:00 712 J/kg -2.9 K 0 % 0 % 0 % 0 m²/s² 0 0 -2.36 80
14:00 318 J/kg -1.4 K 0 % 0 % 0 % 0 m²/s² 0 0 0.25 3
15:00 208 J/kg -0.4 K 0 % 0 % 0 % 0 m²/s² 0 0 2.45 2
16:00 303 J/kg -1.0 K 0 % 0 % 0 % 0 m²/s² 0 0 -0.01 2
17:00 337 J/kg -1.3 K 0 % 0 % 0 % 0 m²/s² 0 0 0.08 2
18:00 231 J/kg 0.3 K 0 % 0 % 0 % 0 m²/s² 0 0 1.23 2
19:00 0 J/kg 1.0 K 0 % 0 % 0 % 0 m²/s² 0 0 3.67 3
20:00 134 J/kg 1.3 K 0 % 0 % 0 % 0 m²/s² 0 0 3.76 2
21:00 212 J/kg 1.2 K 0 % 0 % 0 % 0 m²/s² 0 0 3.45 2
22:00 222 J/kg 1.4 K 0 % 0 % 0 % 0 m²/s² 0 0 3.47 2
23:00 204 J/kg 1.8 K 0 % 0 % 0 % 0 m²/s² 0 0 4.8 2
 07:14     17:05    Daglengte: 9:51 Maandag 18 Nov
00:00 115 J/kg 3.0 K 0 % 0 % 0 % 0 m²/s² 0 0 7.14 3
01:00 21 J/kg 3.8 K 0 % 0 % 0 % 0 m²/s² 0 0 9.35 3
02:00 6 J/kg 4.4 K 0 % 0 % 0 % 0 m²/s² 0 0 10.49 80
03:00 9 J/kg 4.0 K 0 % 0 % 0 % 0 m²/s² 0 0 9.19 61
04:00 0 J/kg 3.9 K 0 % 0 % 0 % 0 m²/s² 0 0 6.84 61
05:00 0 J/kg 2.9 K 0 % 0 % 0 % 0 m²/s² 0 0 4.37 61
06:00 42 J/kg 2.3 K 0 % 0 % 0 % 0 m²/s² 0 0 3.02 80
07:00 37 J/kg 1.9 K 0 % 0 % 0 % 0 m²/s² 0 0 2.47 80
08:00 87 J/kg 2.5 K 0 % 0 % 0 % 0 m²/s² 0 0 2.74 61
09:00 98 J/kg 1.6 K 0 % 0 % 0 % 0 m²/s² 0 0 1.81 3
10:00 18 J/kg 0.7 K 0 % 0 % 0 % 0 m²/s² 0 0 0.85 3
11:00 63 J/kg 1.4 K 0 % 0 % 0 % 0 m²/s² 0 0 1.61 61
12:00 64 J/kg 1.1 K 0 % 0 % 0 % 0 m²/s² 0 0 1.34 61
13:00 145 J/kg 0.2 K 0 % 0 % 0 % 0 m²/s² 0 0 0.56 61
14:00 282 J/kg -1.1 K 0 % 0 % 0 % 0 m²/s² 0 0 -0.59
15:00 575 J/kg -2.0 K 0 % 0 % 0 % 0 m²/s² 0 0 -0.92
16:00 540 J/kg -1.8 K 0 % 0 % 0 % 0 m²/s² 0 0 -0.9
Temp Baro Wind Neerslag
  EWN Forecast EWN WRFDA DWD ICON FMI HIRLAM MET Norway GFS
 07:10     17:07    Daglengte: 9:57 Vandaag
19:00 9.1° 1006.0 hPa 4.0 m/s 11.5 mm 11.1° 1004.5 hPa 6.0 m/s 23.3 mm 8.4° 1006.6 hPa 2.4 m/s 7.3 mm 9.8° 1004.8 hPa 4.2 m/s 0.0 mm 9.0° 1006.2 hPa 4.1 m/s 2.3 mm 7.3° 1005.4 hPa 2.2 m/s
22:00 8.3° 1007.3 hPa 3.0 m/s 1.3 mm 8.5° 1006.0 hPa 4.3 m/s 25.7 mm 8.0° 1007.6 hPa 1.6 m/s 0.3 mm 9.2° 1006.7 hPa 3.2 m/s 0.0 mm 8.2° 1007.2 hPa 2.9 m/s 0.4 mm 7.1° 1007.5 hPa 2.2 m/s
 07:11     17:07    Daglengte: 9:56 Morgen
01:00 8.5° 1008.3 hPa 2.7 m/s 0.0 mm 10.1° 1007.1 hPa 4.6 m/s 26.0 mm 7.7° 1009.0 hPa 1.4 m/s 0.0 mm 8.6° 1007.8 hPa 1.3 m/s 0.0 mm 8.9° 1008.3 hPa 2.8 m/s 0.5 mm 6.8° 1008.5 hPa 2.0 m/s
04:00 7.4° 1008.2 hPa 2.6 m/s 0.0 mm 7.4° 1007.3 hPa 2.9 m/s 26.3 mm 6.7° 1009.4 hPa 1.3 m/s 0.0 mm 7.7° 1007.9 hPa 2.2 m/s 0.0 mm 7.8° 1007.9 hPa 2.7 m/s 0.0 mm 6.9° 1008.8 hPa 2.1 m/s
07:00 7.5° 1008.4 hPa 2.4 m/s 0.0 mm 8.7° 1006.6 hPa 3.0 m/s 26.3 mm 6.6° 1010.0 hPa 1.6 m/s 0.0 mm 8.2° 1008.0 hPa 2.1 m/s 0.0 mm 7.7° 1008.1 hPa 2.3 m/s 0.0 mm 7.3° 1009.0 hPa 1.7 m/s
10:00 9.7° 1008.8 hPa 1.7 m/s 0.0 mm 11.4° 1007.5 hPa 2.4 m/s 26.3 mm 9.8° 1010.0 hPa 0.8 m/s 0.0 mm 9.7° 1007.3 hPa 1.6 m/s 0.0 mm 10.0° 1008.6 hPa 2.6 m/s 0.0 mm 10.1° 1009.3 hPa 2.4 m/s
13:00 10.6° 1006.9 hPa 1.2 m/s 0.0 mm 8.9° 1006.6 hPa 4.4 m/s 30.0 mm 10.7° 1008.0 hPa 0.9 m/s 0.0 mm 11.2° 1005.1 hPa 0.7 m/s 0.0 mm 10.0° 1006.9 hPa 1.8 m/s 0.5 mm 9.8° 1006.9 hPa 1.8 m/s
16:00 8.7° 1005.1 hPa 2.6 m/s 9.2 mm 7.4° 1001.5 hPa 9.5 m/s 52.3 mm 9.6° 1006.5 hPa 0.6 m/s 1.0 mm 9.2° 1004.3 hPa 2.0 m/s 0.0 mm 8.6° 1005.1 hPa 1.8 m/s 2.8 mm 7.3° 1003.0 hPa 3.6 m/s
19:00 7.3° 1004.8 hPa 2.9 m/s 19.8 mm 6.7° 998.6 hPa 13.1 m/s 114.5 mm 8.1° 1006.2 hPa 1.2 m/s 2.8 mm 7.6° 1004.6 hPa 1.7 m/s 0.0 mm 6.6° 1005.9 hPa 1.3 m/s 2.6 mm 8.0° 1000.1 hPa 0.9 m/s
22:00 7.2° 1004.6 hPa 2.6 m/s 24.5 mm 8.3° 996.0 hPa 10.0 m/s 148.9 mm 7.1° 1006.1 hPa 1.4 m/s 2.2 mm 7.2° 1004.9 hPa 1.3 m/s 0.0 mm 7.0° 1006.0 hPa 0.4 m/s 1.2 mm 8.4° 997.9 hPa 6.4 m/s
 07:13     17:06    Daglengte: 9:53 Zondag 17 Nov
01:00 7.4° 1004.4 hPa 2.6 m/s 26.8 mm 7.5° 994.4 hPa 5.9 m/s 176.1 mm 7.0° 1006.3 hPa 0.6 m/s 1.8 mm 7.4° 1004.7 hPa 1.9 m/s 0.0 mm 7.3° 1006.6 hPa 1.6 m/s 2.8 mm 8.2° 995.5 hPa 2.0 m/s
04:00 6.9° 1005.0 hPa 2.3 m/s 31.8 mm 6.3° 996.6 hPa 3.5 m/s 213.6 mm 6.6° 1006.9 hPa 1.7 m/s 1.4 mm 7.4° 1005.0 hPa 2.2 m/s 0.0 mm 6.9° 1007.4 hPa 1.1 m/s 1.2 mm 6.8° 996.1 hPa 5.5 m/s
07:00 7.0° 1006.6 hPa 1.7 m/s 27.9 mm 8.9° 998.5 hPa 5.6 m/s 232.8 mm 6.4° 1007.6 hPa 0.3 m/s 0.5 mm 8.3° 1006.7 hPa 1.4 m/s 0.0 mm 6.8° 1009.5 hPa 0.8 m/s 0.4 mm 7.4° 999.5 hPa 4.7 m/s
10:00 9.6° 1009.1 hPa 2.7 m/s 0.0 mm 11.4° 1002.4 hPa 7.2 m/s 248.4 mm 8.4° 1009.6 hPa 1.7 m/s 0.0 mm 9.9° 1011.7 hPa 2.2 m/s 0.0 mm 10.0° 1004.2 hPa 3.7 m/s
13:00 9.7° 1009.3 hPa 4.9 m/s 34.7 mm 10.5° 1002.9 hPa 10.3 m/s 253.0 mm 8.7° 1009.3 hPa 3.7 m/s 1.0 mm 9.7° 1012.4 hPa 4.4 m/s 1.3 mm 10.1° 1006.6 hPa 4.4 m/s
16:00 8.9° 1010.2 hPa 3.2 m/s 36.1 mm 8.9° 1005.0 hPa 6.4 m/s 261.8 mm 8.3° 1009.9 hPa 2.3 m/s 0.1 mm 9.0° 1013.0 hPa 2.8 m/s 2.8 mm 9.3° 1007.5 hPa 2.4 m/s
19:00 7.0° 1012.1 hPa 2.4 m/s 0.0 mm 6.9° 1005.9 hPa 4.9 m/s 263.1 mm 6.9° 1012.3 hPa 1.2 m/s 0.0 mm 7.9° 1014.2 hPa 2.5 m/s 1.6 mm 6.7° 1008.7 hPa 1.5 m/s
22:00 7.4° 1012.8 hPa 2.3 m/s 17.7 mm 8.6° 1007.8 hPa 3.8 m/s 265.0 mm 6.0° 1013.0 hPa 1.4 m/s 0.0 mm 7.8° 1014.5 hPa 2.3 m/s 0.7 mm 6.7° 1010.1 hPa 2.5 m/s
 07:14     17:05    Daglengte: 9:51 Maandag 18 Nov
01:00 7.3° 1012.1 hPa 2.8 m/s 53.8 mm 8.3° 1007.6 hPa 2.8 m/s 265.7 mm 6.5° 1012.1 hPa 1.9 m/s 0.1 mm 7.4° 1013.8 hPa 3.3 m/s 1.1 mm 5.7° 1009.7 hPa 2.1 m/s
04:00 7.5° 1011.5 hPa 3.7 m/s 53.8 mm 8.8° 1007.2 hPa 4.2 m/s 265.7 mm 6.6° 1011.4 hPa 1.2 m/s 0.6 mm 7.5° 1012.4 hPa 4.2 m/s 0.0 mm 7.4° 1010.1 hPa 1.8 m/s
07:00 8.3° 1011.4 hPa 4.3 m/s 36.0 mm 9.5° 1006.5 hPa 6.1 m/s 266.2 mm 7.4° 1011.1 hPa 1.8 m/s 1.0 mm 8.4° 1013.0 hPa 4.6 m/s 0.6 mm 5.5° 1011.0 hPa 1.4 m/s
10:00 9.4° 1010.5 hPa 5.3 m/s 62.4 mm 10.6° 1005.9 hPa 10.1 m/s 277.4 mm 9.6° 1009.9 hPa 3.0 m/s 0.4 mm 9.1° 1011.9 hPa 5.2 m/s 10.5° 1011.4 hPa 1.8 m/s
13:00 10.1° 1009.1 hPa 6.3 m/s 109.0 mm 11.9° 1004.7 hPa 9.0 m/s 317.4 mm 9.9° 1008.1 hPa 6.5 m/s 4.8 mm 9.8° 1010.8 hPa 5.7 m/s 9.7° 1010.0 hPa 1.0 m/s
16:00 10.0° 1009.1 hPa 5.6 m/s 338.9 mm 12.1° 1003.4 hPa 6.1 m/s 338.9 mm 9.6° 1010.0 hPa 5.5 m/s 9.3° 1007.9 hPa 1.7 m/s
19:00 9.7° 1008.8 hPa 4.9 m/s 344.6 mm 11.2° 1005.9 hPa 2.3 m/s 344.6 mm 9.4° 1009.3 hPa 5.3 m/s 8.8° 1007.7 hPa 2.4 m/s
22:00 9.3° 1009.6 hPa 3.2 m/s 62.9 mm 9.3° 1009.8 hPa 3.4 m/s 8.9° 1007.5 hPa 1.6 m/s 62.9 mm
 07:15     17:04    Daglengte: 9:49 Dinsdag 19 Nov
01:00 9.2° 1009.8 hPa 2.3 m/s 63.2 mm 9.3° 1010.0 hPa 2.4 m/s 8.4° 1007.5 hPa 1.4 m/s 63.2 mm
04:00 9.0° 1010.3 hPa 2.0 m/s 64.1 mm 9.1° 1010.5 hPa 2.1 m/s 7.6° 1007.7 hPa 1.0 m/s 64.1 mm
07:00 8.7° 1011.0 hPa 1.8 m/s 64.6 mm 8.9° 1011.1 hPa 1.8 m/s 6.8° 1009.8 hPa 1.7 m/s 64.6 mm
10:00 10.4° 1012.2 hPa 2.3 m/s 64.6 mm 10.4° 1012.2 hPa 2.2 m/s 9.9° 1012.4 hPa 2.8 m/s 64.6 mm
13:00 11.8° 1013.2 hPa 2.8 m/s 64.6 mm 11.9° 1013.2 hPa 2.7 m/s 11.1° 1013.2 hPa 4.0 m/s 64.6 mm
16:00 9.9° 1015.1 hPa 2.3 m/s 64.7 mm 9.9° 1015.2 hPa 2.2 m/s 9.8° 1014.2 hPa 3.1 m/s 64.7 mm
19:00 7.9° 1017.0 hPa 1.7 m/s 64.7 mm 8.0° 1017.1 hPa 1.8 m/s 6.4° 1015.5 hPa 1.0 m/s 64.7 mm
22:00 6.7° 1017.6 hPa 1.6 m/s 64.7 mm 6.7° 1017.7 hPa 1.7 m/s 6.7° 1016.7 hPa 0.9 m/s 64.7 mm
 07:16     17:04    Daglengte: 9:48 Woensdag 20 Nov
01:00 5.6° 1018.1 hPa 1.6 m/s 64.7 mm 5.4° 1018.2 hPa 1.6 m/s 7.5° 1016.6 hPa 1.3 m/s 64.7 mm
04:00 5.4° 1017.6 hPa 1.8 m/s 64.7 mm 5.3° 1017.8 hPa 1.8 m/s 6.9° 1015.8 hPa 1.5 m/s 64.7 mm
07:00 5.4° 1017.2 hPa 2.0 m/s 64.7 mm 5.2° 1017.3 hPa 2.0 m/s 7.8° 1015.9 hPa 1.7 m/s 64.7 mm
10:00 9.3° 1016.9 hPa 1.6 m/s 64.7 mm 9.1° 1016.9 hPa 1.6 m/s 11.4° 1016.7 hPa 1.9 m/s 64.7 mm
13:00 13.0° 1016.4 hPa 1.4 m/s 64.7 mm 13.0° 1016.5 hPa 1.2 m/s 13.4° 1015.4 hPa 3.6 m/s 64.7 mm
16:00 10.7° 1016.0 hPa 2.2 m/s 64.7 mm 10.6° 1016.2 hPa 2.1 m/s 12.2° 1014.3 hPa 2.8 m/s 64.7 mm
19:00 8.3° 1015.8 hPa 3.0 m/s 64.7 mm 8.2° 1015.9 hPa 3.0 m/s 9.0° 1014.2 hPa 2.6 m/s 64.7 mm
22:00 9.0° 1015.4 hPa 3.6 m/s 64.7 mm 9.1° 1015.5 hPa 3.7 m/s 8.6° 1014.3 hPa 2.7 m/s 64.7 mm
 07:17     17:03    Daglengte: 9:46 Donderdag 21 Nov
01:00 9.9° 1015.0 hPa 4.2 m/s 64.7 mm 9.9° 1015.1 hPa 4.4 m/s 10.2° 1013.6 hPa 2.6 m/s 64.7 mm
04:00 10.4° 1014.7 hPa 3.6 m/s 64.7 mm 10.4° 1014.9 hPa 3.8 m/s 10.1° 1012.4 hPa 2.3 m/s 64.7 mm
07:00 10.8° 1014.5 hPa 3.0 m/s 64.7 mm 11.0° 1014.7 hPa 3.1 m/s 9.0° 1012.6 hPa 2.0 m/s 64.7 mm
10:00 13.3° 1014.7 hPa 3.2 m/s 64.7 mm 13.2° 1014.8 hPa 3.3 m/s 14.4° 1013.8 hPa 2.4 m/s 64.7 mm
13:00 15.5° 1014.6 hPa 3.5 m/s 64.7 mm 15.4° 1014.8 hPa 3.5 m/s 16.4° 1013.0 hPa 3.6 m/s 64.7 mm
16:00 13.1° 1014.9 hPa 3.2 m/s 64.7 mm 13.0° 1015.1 hPa 3.3 m/s 14.5° 1012.0 hPa 2.2 m/s 64.7 mm
19:00 10.7° 1015.2 hPa 3.1 m/s 64.7 mm 10.6° 1015.5 hPa 3.1 m/s 11.3° 1012.2 hPa 2.6 m/s 64.7 mm
22:00 10.8° 1015.0 hPa 3.8 m/s 64.7 mm 10.8° 1015.2 hPa 3.8 m/s 11.6° 1012.2 hPa 3.2 m/s 64.7 mm
 07:18     17:03    Daglengte: 9:45 Vrijdag 22 Nov
01:00 11.0° 1014.6 hPa 4.5 m/s 64.7 mm 10.9° 1014.9 hPa 4.6 m/s 12.3° 1011.2 hPa 3.2 m/s 64.7 mm
04:00 11.6° 1014.0 hPa 5.0 m/s 64.7 mm 11.6° 1014.4 hPa 5.1 m/s 12.0° 1009.9 hPa 3.4 m/s 64.7 mm
07:00 12.2° 1013.5 hPa 5.4 m/s 64.7 mm 12.2° 1013.9 hPa 5.6 m/s 12.2° 1009.3 hPa 2.8 m/s 64.7 mm
10:00 14.4° 1012.8 hPa 5.8 m/s 64.7 mm 14.3° 1013.1 hPa 6.1 m/s 15.3° 1009.7 hPa 2.5 m/s 64.7 mm
13:00 16.5° 1012.0 hPa 6.4 m/s 64.7 mm 16.4° 1012.3 hPa 6.6 m/s 17.0° 1008.8 hPa 4.0 m/s 64.7 mm
16:00 14.8° 1012.0 hPa 6.3 m/s 64.7 mm 14.8° 1012.3 hPa 6.7 m/s 14.5° 1008.1 hPa 2.1 m/s 64.7 mm
19:00 13.2° 1012.0 hPa 6.5 m/s 64.7 mm 13.3° 1012.3 hPa 6.8 m/s 12.0° 1008.4 hPa 2.6 m/s 64.7 mm
 07:19     17:02    Daglengte: 9:43 Zaterdag 23 Nov
01:00 14.0° 1011.0 hPa 5.8 m/s 65.0 mm 14.1° 1011.3 hPa 6.1 m/s 12.8° 1008.1 hPa 3.0 m/s 65.0 mm
07:00 14.5° 1009.3 hPa 5.8 m/s 72.4 mm 14.7° 1009.6 hPa 6.1 m/s 11.7° 1005.7 hPa 2.1 m/s 72.4 mm
13:00 14.8° 1007.9 hPa 5.1 m/s 105.8 mm 15.2° 1008.4 hPa 5.5 m/s 10.1° 1002.9 hPa 1.0 m/s 105.8 mm
19:00 14.3° 1007.3 hPa 4.4 m/s 107.8 mm 14.7° 1007.6 hPa 4.6 m/s 9.5° 1003.5 hPa 2.4 m/s 107.8 mm
 07:20     17:02    Daglengte: 9:42 Zondag 24 Nov
01:00 13.7° 1006.7 hPa 3.3 m/s 108.4 mm 14.2° 1006.8 hPa 3.4 m/s 8.5° 1005.4 hPa 1.8 m/s 108.4 mm
07:00 11.3° 1006.2 hPa 1.2 m/s 109.6 mm 11.5° 1006.0 hPa 1.3 m/s 8.8° 1008.2 hPa 0.6 m/s 109.6 mm
13:00 16.7° 1005.7 hPa 2.4 m/s 110.6 mm 17.1° 1005.2 hPa 2.2 m/s 12.7° 1011.4 hPa 4.9 m/s 110.6 mm
19:00 12.1° 1006.9 hPa 0.8 m/s 111.2 mm 12.5° 1006.3 hPa 0.8 m/s 8.2° 1013.8 hPa 0.8 m/s 111.2 mm
 07:21     17:01    Daglengte: 9:40 Maandag 25 Nov
01:00 11.6° 1006.4 hPa 0.7 m/s 111.3 mm 12.0° 1005.7 hPa 0.6 m/s 7.4° 1014.3 hPa 1.6 m/s 111.3 mm
07:00 8.3° 1014.2 hPa 1.6 m/s 111.3 mm 8.3° 1014.2 hPa 1.6 m/s 111.3 mm
13:00 13.7° 1010.2 hPa 2.1 m/s 1.7 mm
19:00 11.3° 1010.6 hPa 0.9 m/s 0.5 mm
 07:23     17:01    Daglengte: 9:38 Dinsdag 26 Nov
01:00 10.7° 1011.1 hPa 0.7 m/s 0.5 mm
07:00 10.7° 1010.5 hPa 0.6 m/s 1.3 mm
13:00 13.3° 1010.8 hPa 1.4 m/s 1.5 mm
19:00 11.0° 1010.4 hPa 0.4 m/s 0.7 mm
 07:24     17:00    Daglengte: 9:36 Woensdag 27 Nov
01:00 10.8° 1010.2 hPa 0.7 m/s 0.5 mm
07:00 10.7° 1009.2 hPa 0.9 m/s 0.5 mm
13:00 13.5° 1009.3 hPa 2.3 m/s 1.2 mm
19:00 11.2° 1009.4 hPa 1.4 m/s 1.1 mm
 07:25     17:00    Daglengte: 9:35 Donderdag 28 Nov
01:00 10.9° 1009.5 hPa 1.3 m/s 0.7 mm
07:00 10.8° 1009.2 hPa 1.1 m/s 0.6 mm
13:00 13.8° 1010.1 hPa 1.3 m/s 0.9 mm
19:00 11.3° 1010.5 hPa 0.9 m/s 0.6 mm
 07:26     17:00    Daglengte: 9:34 Vrijdag 29 Nov
01:00 10.8° 1010.8 hPa 0.8 m/s 0.3 mm
07:00 10.6° 1010.4 hPa 0.9 m/s 0.5 mm
13:00 13.9° 1010.5 hPa 1.4 m/s 1.8 mm
19:00 11.3° 1010.6 hPa 0.7 m/s 1.8 mm
 07:27     16:59    Daglengte: 9:32 Zaterdag 30 Nov
01:00 10.7° 1010.7 hPa 1.1 m/s 1.0 mm
07:00 10.5° 1010.4 hPa 1.4 m/s 1.8 mm
13:00 12.8° 1011.1 hPa 3.0 m/s 2.3 mm
FMI Hirlam - 7.5 km EWN WRFDA - 12 km DWD ICON - 7 km GFS - 25 km Basiskaart






























































Updatetijd (Europe/Amsterdam) Resolutie Lengte Stap
FMI Hirlam 12:15, 18:15, 00:15, 06:15 7.5 km 49h 1h
EWN WRFDA 14:30, 20:30, 02:30, 08:30 12 km 73h 1h
DWD ICON 10:45, 16:45, 22:45, 04:45 7 km 75h 1h
GFS 13:30, 19:30, 01:30, 07:30 25 km 237h 3h
30+ mm
25-30 mm
20-25 mm
15-20 mm
10-15 mm
6-10 mm
4-6 mm
2-4 mm
1-2 mm
0.5-1 mm
0.2-0.5 mm
0.1-0.2 mm
30+ mm
25-30 mm
20-25 mm
15-20 mm
10-15 mm
6-10 mm
4-6 mm
2-4 mm
1-2 mm
0.5-1 mm
0.2-0.5 mm
0.1-0.2 mm
Sneeuwval
Natte sneeuw
Hagel
Vorst
30+ mm
25-30 mm
20-25 mm
15-20 mm
10-15 mm
6-10 mm
4-6 mm
2-4 mm
1-2 mm
0.5-1 mm
0.2-0.5 mm
0.1-0.2 mm
Sneeuwval
Natte sneeuw
Hagel
Vorst
Onweer
50 mm
40 mm
30 mm
26 mm
22 mm
18 mm
14 mm
10 mm
9 mm
8 mm
7 mm
6 mm
5 mm
4.5 mm
4 mm
3.5 mm
3 mm
2.5 mm
2 mm
1.5 mm
1 mm
0.8 mm
0.6 mm
0.4 mm
0.2 mm
0.05 mm
35°
30°
25°
20°
15°
10°
-5°
-10°
-15°
-20°
-25°
-30°
-35°
33> m/s
29 m/s
25 m/s
21 m/s
17 m/s
14 m/s
11 m/s
8 m/s
5 m/s
3 m/s
0 m/s
2600 J/kg
2400 J/kg
2200 J/kg
2000 J/kg
1800 J/kg
1600 J/kg
1400 J/kg
1200 J/kg
1000 J/kg
800 J/kg
600 J/kg
400 J/kg
200 J/kg
70 dBZ
65 dBZ
60 dBZ
55 dBZ
50 dBZ
45 dBZ
40 dBZ
35 dBZ
30 dBZ
25 dBZ
20 dBZ
15 dBZ
10 dBZ
5 dBZ
-1 K
-2 K
-3 K
-4 K
-5 K
-6 K
-7 K
-8 K
-9 K
950 m²/s²
900 m²/s²
850 m²/s²
800 m²/s²
750 m²/s²
700 m²/s²
650 m²/s²
600 m²/s²
550 m²/s²
500 m²/s²
450 m²/s²
400 m²/s²
350 m²/s²
300 m²/s²
250 m²/s²
200 m²/s²
150 m²/s²
100 m²/s²
46 m/s
44 m/s
42 m/s
40 m/s
38 m/s
36 m/s
34 m/s
32 m/s
30 m/s
28 m/s
26 m/s
24 m/s
22 m/s
20 m/s
16 m/s
12 m/s
8 m/s
4 m/s
30 m/s
28 m/s
26 m/s
24 m/s
22 m/s
20 m/s
18 m/s
16 m/s
14 m/s
12 m/s
10 m/s
8 m/s
6 m/s
4 m/s
2 m/s
3.0
2.8
2.6
2.4
2.2
2.0
1.8
1.6
1.4
1.2
1.0
0.8
0.6
0.4
0.2
15
14
13
12
11
10
9
8
7
6
5
4
3
2
1
90%
80%
70%
60%
50%
40%
30%
20%
10%
42
40
38
36
34
32
30
28
26
24
22
20
18
16
14
12
90+ cm
80-90 cm
70-80 cm
60-70 cm
50-60 cm
40-50 cm
30-40 cm
20-30 cm
10-20 cm
1-10 cm
Sneeuwval
Natte sneeuw
Regen
>120 mm
115 mm
110 mm
105 mm
100 mm
95 mm
90 mm
85 mm
80 mm
75 mm
70 mm
65 mm
60 mm
55 mm
50 mm
45 mm
45 mm
40 mm
35 mm
30 mm
25 mm
20 mm
15 mm
10 mm
5 mm
0.1 mm
960 hPa
880 hPa
800 hPa
720 hPa
640 hPa
560 hPa
584 gpdm
568 gpdm
552 gpdm
536 gpdm
520 gpdm
504 gpdm
488 gpdm
Extreem zwaar Noodweer Kans op onweer
15% 15% 5% 50% 15%

Dag




Kaart






35°
30°
25°
20°
15°
10°
-5°
-10°
-15°
-20°
-25°
-30°
-35°
33> m/s
29 m/s
25 m/s
21 m/s
17 m/s
14 m/s
11 m/s
8 m/s
5 m/s
3 m/s
0 m/s
Extreem zwaar Noodweer Kans op onweer
15% 15% 5% 50% 15%
>120 mm
115 mm
110 mm
105 mm
100 mm
95 mm
90 mm
85 mm
80 mm
75 mm
70 mm
65 mm
60 mm
55 mm
50 mm
45 mm
45 mm
40 mm
35 mm
30 mm
25 mm
20 mm
15 mm
10 mm